Карточка аэропорта UWKE

Внимание!
Информация на этой странице в стадии наполнения.
Если вы не увидели какой-то информации, или заметили неточность - пожалуйста сообщите нам!
Спасибо!
Команда RU-STAFF
Название аэропортаБегишево
Название аэропорта (англ.)Begishevo
Превышение643 ft. (196 m.)
Координаты55°33.882', 52°5.5500000000001'
Высота перехода700m
Эшелон переходаQFE>=742mm:FL040; QFE<742=>715:FL050; QFE<715:FL060
Коды ответчика1000
Зона ОрВДСамара РПИ (UWWW)
Данные METARUWKE 250340Z 02006MPS 9999 BKN006 14/14 Q1004 R03/090070 NOSIG RMK OBST OBSC QFE736/0981
Проноз погоды (TAF)UWKE 250200Z 2503/2603 02003G10MPS 9999 SCT030 TEMPO 2503/2506 35007G14MPS 2100 BR BKN002 TEMPO 2506/2512 6000 -SHRA BKN003 BKN016CB
NOTAMshow/hide NOTAM
AWOS   TABLE

Информация о ВПП

ВПП Длина ВПП (м.) Покрытие Курс ВПП Частота ILS
032502Асфальтобетон34 
212502Асфальтобетон214109.9

Диспетчерские позиции

Позывной Наименование органа УВД Частота
UWKE_R_APPБегишево-Круг127.900
UWKE_TWRБегишево-Вышка121.200



Спутниковое изображение